Погода в Риштане

Узбекистан     40°21′33″N   71°16′47″E
темп.,
°C
ветер,
м/с
пор.,
м/с
влажн.,
%
обл.,
%
осадки,
мм/ч
давл.,
гПа
погр.,
м
1 марта, пн
пн123:000юв11510 0.0 102522
02:00−1юв115011 0.0 102422
05:00−1всв014929 0.0 102522
08:00+2всв3341100 0.0 102560
11:00+6св333550 0.0 1023496
14:00+9св22270 0.0 1021705
17:00+10всв11260 0.0 1022556
20:00+5всв12410 0.0 102622
2 марта, вт
вт223:00+4в12420 0.0 102722
02:00+2св11452 0.0 102722
05:00+2в124551 0.0 102622
08:00+4св1142100 0.0 102722
11:00+9св2230100 0.0 1024331
14:00+11св2124100 0.0 1022591
17:00+11св2225100 0.0 1021526
20:00+8ссв1135100 0.0 102422
3 марта, ср
ср323:00+6зюз1138100 0.0 102422
02:00+6зюз2237100 0.0 102422
05:00+6юз1240100 0.0 102422
08:00+7ссз1139100 0.0 102423
11:00+9всв3239100 0.0 1022814
14:00+11всв3242100 0.0 10201415
17:00+10ссв3351100 0.0 1021747
20:00+7св3469100 0.0 1023338
4 марта, чт
чт423:00+5св238488 0.0 102497
02:00+4всв238947 0.0 102459
05:00+2вюв129644 0.0 102422
08:00+4св12885 0.0 1024108
11:00+7св346746 0.0 1020700
14:00+11всв445097 0.0 1018857
17:00+11ссз214898 0.0 1019711
20:00+10зсз3554100 0.1 1022242
5 марта, пт
пт523:00+9ю5759100 0.9 1024196
02:00+9ююз6961100 0.1 1022220
05:00+7ююв1182100 1.5 102354
08:00+5зюз131874100 2.1 1024859
11:00+8юз91247100 2.3 1025915
14:00+12з2437100 0.0 10231202
17:00+11св444196 0.0 1023895
20:00+7всв125385 0.0 1026201